Location: Fort Wayne
(41.1310°N, 85.1290°W)
Time: 23:56:31
(UTC-04:00)

Cosmos 1000 Rocket - Visible Passes

Search period start: 24 April 2014 00:00
Search period end: 04 May 2014 00:00
Orbit: 954 x 993 km, 82.9° (Epoch: 24 April)

Date Brightness Start Highest point End Pass type
(mag) Time Alt. Az. Time Alt. Az. Time Alt. Az.
24 Apr 6.7 01:10:21 10° NW 01:12:55 13° W 01:13:29 13° W visible
24 Apr 5.7 22:02:46 10° NNE 22:07:33 23° ENE 22:09:08 21° E visible
24 Apr 4.9 23:47:15 10° NNW 23:53:14 53° W 23:53:46 51° WSW visible
25 Apr 5.0 22:26:52 10° N 22:32:38 40° ENE 22:34:04 35° ESE visible
26 Apr 5.8 00:12:34 10° NNW 00:17:45 29° W 00:18:42 28° WSW visible
26 Apr 4.4 22:51:23 10° N 22:57:33 72° E 22:59:01 52° SSE visible
27 Apr 6.5 00:38:35 10° NW 00:42:06 16° W 00:43:40 15° W visible
27 Apr 5.9 21:32:10 10° NNE 21:36:25 19° ENE 21:39:22 14° ESE visible
27 Apr 4.7 23:16:12 10° NNW 23:22:17 65° W 23:24:00 46° SSW visible
28 Apr 5.2 21:56:04 10° N 22:01:35 33° ENE 22:04:22 23° ESE visible
28 Apr 5.6 23:41:22 10° NNW 23:46:52 35° W 23:49:00 28° SW visible
29 Apr 4.5 22:20:27 10° N 22:26:33 60° E 22:29:23 32° SSE visible
30 Apr 6.5 00:07:04 10° NW 00:11:17 20° W 00:14:02 15° WSW visible
30 Apr 6.1 21:01:43 10° NNE 21:05:16 16° ENE 21:08:48 10° ESE visible
30 Apr 4.5 22:45:11 10° N 22:51:20 78° W 22:54:26 31° S visible
01 May 5.5 21:25:18 10° NNE 21:30:29 28° ENE 21:34:52 13° SE visible
01 May 5.4 23:10:13 10° NNW 23:15:58 43° W 23:19:31 22° SSW visible
02 May 4.7 21:49:34 10° N 21:55:31 49° ENE 21:59:58 18° SSE visible
02 May 6.3 23:35:42 10° NNW 23:40:26 24° W 23:44:37 12° SW visible
03 May 4.4 22:14:11 10° N 22:20:22 87° E 22:25:06 18° S visible
